Weather History for Skagway, AK

Change the Weather History Date:

Wednesday, March 27, 2013

  Actual Average Record
Temperature  
Mean Temperature 34 °F -  
Max Temperature 37 °F 38 °F 51 °F (2011)
Min Temperature 30 °F 27 °F 10 °F (1967)
Degree Days  
Heating Degree Days 32    
Moisture  
Dew Point 23 °F    
Average Humidity 62    
Maximum Humidity 72    
Minimum Humidity 52    
Precipitation  
Precipitation 0.00 in - - ()
Sea Level Pressure  
Sea Level Pressure 30.13 in    
Wind  
Wind Speed 21 mph (SW)    
Max Wind Speed 26 mph    
Max Gust Speed 34 mph    
Visibility 10 miles    
Events Snow    
Averages and records for this station are not official NWS values.
T = Trace of Precipitation, MM = Missing Value Source: NWS Daily Summary

Daily Weather History Graph

Daily Weather History Graph

Search for Another Location

Airport:

Trip Planner

Search our weather history database for the weather conditions in past years. The results will help you decide how hot, cold, wet, or windy it might be!

Date:

Astronomy

Mar. 27, 2013 Rise Set
Actual Time 6:40 AM AKDT 7:33 PM AKDT
Civil Twilight 5:59 AM AKDT 8:15 PM AKDT
Nautical Twilight 5:08 AM AKDT 9:06 PM AKDT
Astronomical Twilight 4:11 AM AKDT 10:03 PM AKDT
Moon 8:49 PM AKDT (3/27) 6:23 AM AKDT (3/27)
Length of Visible Light 14h 15m
Length of Day
12h 52m
Full, 100% of the Moon is Illuminated
Mar 27
Full
Apr 2
Last Quarter
Apr 10
New
Apr 18
First Quarter
Apr 25
Full

Hourly Weather History & Observations

Time (AKDT) Temp. Windchill Dew Point Humidity Pressure Visibility Wind Dir Wind Speed Gust Speed Precip Events Conditions
12:53 AM 35.1 °F 22.7 °F 23.0 °F 61% 30.08 in 9.0 mi SW 25.3 mph 33.4 mph 0.00 in   Overcast
1:53 AM 34.0 °F 21.0 °F 23.0 °F 64% 30.08 in 9.0 mi SW 26.5 mph 34.5 mph 0.00 in Snow Light Snow
2:53 AM 34.0 °F 22.7 °F 21.9 °F 61% 30.10 in 10.0 mi SW 19.6 mph 25.3 mph 0.00 in   Clear
3:53 AM 34.0 °F 22.4 °F 23.0 °F 64% 30.10 in 10.0 mi SSW 20.7 mph - N/A   Clear
4:53 AM 34.0 °F 23.0 °F 21.9 °F 61% 30.11 in 10.0 mi SW 18.4 mph - N/A   Overcast
5:53 AM 33.1 °F 20.6 °F 24.1 °F 70% 30.11 in 10.0 mi SSW 23.0 mph 28.8 mph N/A   Partly Cloudy
6:53 AM 33.1 °F 20.9 °F 24.1 °F 70% 30.11 in 10.0 mi SW 21.9 mph 29.9 mph N/A   Overcast
7:53 AM 33.1 °F 21.5 °F 24.1 °F 70% 30.12 in 10.0 mi SSW 19.6 mph - N/A   Mostly Cloudy
8:53 AM 33.1 °F 22.6 °F 23.0 °F 66% 30.13 in 10.0 mi SSW 16.1 mph 23.0 mph N/A   Overcast
9:53 AM 34.0 °F 21.8 °F 23.0 °F 64% 30.13 in 10.0 mi SSW 23.0 mph - N/A   Scattered Clouds
10:53 AM 36.0 °F 24.2 °F 24.1 °F 62% 30.14 in 10.0 mi SSW 24.2 mph 28.8 mph N/A   Partly Cloudy
11:53 AM 36.0 °F 24.2 °F 23.0 °F 59% 30.14 in 10.0 mi SSW 24.2 mph 31.1 mph N/A   Mostly Cloudy
12:53 PM 36.0 °F 24.4 °F 19.9 °F 52% 30.14 in 10.0 mi SSW 23.0 mph - N/A   Overcast
1:53 PM 37.0 °F 25.6 °F 21.9 °F 54% 30.13 in 10.0 mi SSW 24.2 mph 29.9 mph N/A   Clear
2:53 PM 37.0 °F 25.4 °F 23.0 °F 57% 30.13 in 10.0 mi SSW 25.3 mph 31.1 mph N/A   Mostly Cloudy
3:53 PM 37.0 °F 25.9 °F 21.9 °F 54% 30.13 in 10.0 mi SW 23.0 mph - N/A   Overcast
4:53 PM 37.0 °F 27.7 °F 21.9 °F 54% 30.13 in 10.0 mi SW 16.1 mph - N/A   Scattered Clouds
5:53 PM 36.0 °F 25.3 °F 21.9 °F 57% 30.13 in 10.0 mi SW 19.6 mph - N/A   Clear
6:53 PM 36.0 °F 26.3 °F 23.0 °F 59% 30.14 in 10.0 mi SW 16.1 mph - N/A   Clear
7:53 PM 35.1 °F 24.1 °F 23.0 °F 61% 30.15 in 10.0 mi SSW 19.6 mph - N/A   Clear
8:53 PM 35.1 °F 27.9 °F 23.0 °F 61% 30.17 in 10.0 mi SSW 9.2 mph - N/A   Clear
9:53 PM 32.0 °F 28.7 °F 21.9 °F 66% 30.18 in 10.0 mi NNE 3.5 mph - N/A   Clear
10:53 PM 30.9 °F 23.5 °F 21.0 °F 67% 30.19 in 10.0 mi NE 8.1 mph - N/A   Clear
11:53 PM 30.0 °F - 21.9 °F 72% 30.21 in 10.0 mi Calm Calm - N/A   Mostly Cloudy